Theta_e
309 309 309 309 309 308 307 307 307 307 306 305 305 305 305 305 306 306 307 307 308 308 309 309 310 310 311 310 310 309 308 308 307 307 306 305 305 304 304 304 303 303 303 302 302 302 302 301 301 301 300 299 298 298 297 297 297 296 296 295 295 294 294 294 294 294 293 293 293
309 309 309 310 309 308 307 307 307 307 306 305 305 305 305 305 306 306 307 307 308 308 309 309 310 310 310 310 309 308 308 307 306 306 306 305 304 304 304 304 303 303 303 302 302 302 301 301 300 300 299 299 298 297 297 297 296 296 295 294 294 294 294 294 293 293 293 293 293
308 308 308 307 307 307 307 306 306 306 305 305 305 305 305 305 306 306 307 307 308 309 309 309 309 309 309 309 308 308 307 306 306 305 305 304 304 304 304 303 303 303 303 303 302 302 302 301 301 300 299 298 298 297 296 296 296 296 295 294 294 294 294 294 293 293 293 293 293
307 307 307 307 306 306 306 306 305 305 305 305 305 305 306 306 306 307 307 308 308 308 308 309 309 309 309 308 308 307 307 307 306 305 304 304 304 303 303 303 303 302 302 302 302 302 301 301 301 300 299 298 297 297 297 296 296 296 295 295 295 295 295 295 294 294 294 294 293
307 306 306 306 306 306 306 306 305 305 305 305 305 305 306 306 307 307 307 307 307 307 308 308 308 308 308 308 307 307 307 307 306 306 304 304 304 303 303 303 303 302 302 302 302 301 301 300 300 299 298 298 297 297 297 297 297 296 296 296 296 295 295 294 294 294 294 294 293
305 305 305 305 305 305 306 306 306 305 305 306 305 305 305 306 306 307 307 307 307 307 308 308 308 308 308 308 307 307 306 306 306 305 304 304 304 303 303 303 303 302 302 302 302 301 300 300 299 299 298 298 297 297 297 297 297 297 296 295 295 295 294 294 294 294 294 294 293
305 305 305 305 305 305 305 306 306 306 306 305 305 305 305 306 306 306 307 307 307 307 308 308 308 307 307 307 306 306 305 305 305 304 304 304 304 303 303 303 302 302 302 302 301 301 300 299 299 299 299 299 298 297 297 297 296 296 295 294 294 294 294 293 293 294 293 293 293
305 305 305 305 305 305 305 305 305 305 305 305 305 305 305 306 306 306 307 307 307 307 307 307 307 306 306 306 306 305 305 304 304 304 304 304 303 303 303 302 302 302 302 301 301 300 300 300 299 298 298 298 298 297 296 296 296 295 294 293 294 293 293 293 293 293 293 293 292
306 305 305 305 305 305 305 305 305 305 305 305 305 305 305 306 306 306 307 306 307 307 307 306 306 306 306 305 305 305 304 304 304 304 304 303 303 302 302 302 302 301 301 301 300 300 300 299 299 298 298 297 297 296 296 296 295 294 294 293 293 293 292 291 291 291 291 291 291
306 306 306 305 305 305 306 305 305 305 305 305 305 305 306 307 307 307 307 307 307 306 306 305 306 305 305 305 305 304 304 304 304 304 303 303 303 302 302 302 301 301 300 300 300 299 299 298 297 297 296 296 296 295 295 295 295 294 294 294 293 292 291 291 291 290 290 291 290
306 306 306 306 306 306 306 305 305 305 305 305 305 306 307 307 307 307 307 307 306 305 305 305 305 305 305 305 304 304 304 304 304 303 303 303 302 302 302 301 301 301 300 299 299 299 298 297 296 296 295 295 295 295 295 294 294 294 294 293 293 292 291 290 289 289 289 289 289
306 306 306 306 306 306 306 305 305 305 305 305 305 306 306 306 306 307 307 306 305 305 305 305 305 305 305 305 304 304 304 304 303 303 302 302 302 302 301 301 301 300 300 299 299 299 298 297 296 296 295 295 295 295 295 294 294 293 293 292 291 291 290 289 289 288 288 288 289
306 306 306 306 306 306 305 305 305 305 305 305 305 305 306 306 306 306 306 305 305 305 305 305 305 305 304 304 304 304 304 303 303 303 302 302 302 301 301 301 301 300 300 299 299 299 298 297 296 296 296 296 296 296 295 295 294 293 292 292 290 290 289 288 288 288 288 288 289
306 306 306 306 306 306 305 305 305 305 305 305 305 306 306 306 306 306 305 305 304 304 304 305 305 305 304 304 304 304 304 303 302 302 302 301 301 301 300 300 300 300 300 299 299 298 298 297 297 296 296 296 296 296 296 294 293 293 292 290 289 289 288 288 288 288 288 288 289
306 306 306 306 305 305 305 305 305 305 305 305 305 305 305 305 306 305 305 304 304 304 304 304 304 304 304 304 304 304 303 303 302 302 301 301 301 300 300 300 300 299 299 299 299 298 297 297 297 297 297 297 296 296 295 293 292 292 291 289 289 288 288 287 287 288 288 288 288
306 306 305 305 305 305 305 305 305 305 305 305 305 305 305 305 305 305 305 304 304 304 304 303 303 303 304 304 304 303 302 302 302 301 301 300 300 300 299 299 299 299 299 298 298 297 297 297 297 297 297 297 296 295 293 291 291 290 290 289 288 288 288 288 288 288 288 288 289
305 305 305 305 305 304 304 305 305 305 304 304 304 304 304 304 304 305 304 304 304 303 303 303 303 303 303 303 303 302 302 302 301 301 300 300 299 299 299 299 299 298 298 297 297 297 297 298 297 297 296 296 295 293 291 290 290 290 289 288 287 288 288 290 289 288 288 289 290
305 305 305 305 305 304 304 304 304 304 304 304 304 304 304 304 304 304 304 304 303 303 302 302 302 302 302 302 302 302 302 301 300 300 300 299 299 299 299 299 299 298 298 297 297 297 297 297 296 295 295 293 292 291 290 290 290 290 289 287 287 287 288 289 288 288 288 289 289
305 304 304 304 304 304 304 304 303 303 303 303 303 303 303 303 303 303 303 303 303 302 302 302 302 302 302 301 301 302 301 301 300 300 300 300 299 299 299 299 298 298 298 298 298 297 297 296 295 294 292 290 289 289 289 290 289 289 287 286 286 286 287 287 286 286 287 288 288
304 304 304 304 304 304 304 303 303 303 303 303 303 303 303 303 303 302 302 302 303 302 302 301 301 301 301 301 301 301 301 301 300 300 299 299 299 299 298 298 298 298 298 298 297 297 296 295 293 291 290 289 289 289 289 289 288 287 286 285 286 286 286 285 285 285 285 286 286
303 304 304 303 303 303 303 303 303 303 303 303 302 302 302 302 302 302 302 302 302 302 302 301 301 301 301 301 300 300 300 300 300 299 299 299 299 299 299 299 298 298 297 297 296 295 293 292 290 290 289 289 289 288 289 289 288 287 286 286 286 286 286 286 286 286 285 285 285
303 303 303 303 303 303 303 303 303 303 302 302 302 302 302 302 302 302 302 302 302 302 301 301 301 301 300 300 300 299 300 300 299 299 299 299 299 299 299 298 297 296 296 295 293 292 291 290 289 289 289 289 289 289 290 290 288 288 287 288 288 287 287 286 286 286 286 286 285
303 303 303 303 303 303 303 303 302 302 302 302 302 302 302 301 302 302 302 302 302 301 301 301 301 301 300 300 300 299 299 299 298 298 298 298 297 297 296 294 294 293 292 291 290 289 289 289 289 289 289 289 289 290 290 290 289 289 289 289 288 288 287 286 286 286 286 286 286
303 303 303 303 303 302 302 302 302 302 302 302 301 301 301 301 301 301 301 301 301 301 301 301 301 301 300 300 300 299 298 297 297 296 296 295 294 293 291 290 290 290 290 289 290 290 290 290 288 288 289 289 289 289 289 289 289 289 289 289 288 288 287 287 286 286 286 286 286
302 303 303 302 302 301 301 301 301 301 301 301 301 301 301 301 301 301 301 301 301 301 301 301 301 300 300 300 299 299 298 296 296 295 294 292 291 289 289 289 289 289 289 291 296 298 297 295 292 290 289 289 289 289 289 289 289 289 289 289 289 288 288 287 287 286 285 285 285
301 301 302 301 301 301 300 300 300 301 301 301 301 301 301 301 301 301 301 301 301 301 301 301 300 301 300 300 299 298 297 296 295 293 291 290 289 288 288 288 288 288 290 296 300 302 302 301 299 295 291 289 289 289 289 288 288 289 289 289 289 289 288 288 287 287 286 285 284
300 300 301 301 300 300 300 300 300 300 301 301 301 301 301 301 301 301 301 300 301 301 301 300 301 301 301 299 297 296 295 294 292 291 289 288 288 287 287 287 287 288 292 299 302 302 302 303 302 299 295 290 289 289 289 288 288 288 289 289 289 289 288 288 288 289 289 286 285
299 299 299 299 299 299 299 299 300 300 300 301 301 301 301 301 301 300 300 300 300 300 300 300 301 300 300 297 295 294 293 291 290 288 288 287 287 287 287 287 287 290 295 302 303 303 302 303 303 302 299 293 289 288 288 288 288 287 287 287 287 287 286 286 287 287 287 286 285
298 298 299 299 299 299 299 299 299 300 300 300 301 301 301 300 300 300 300 300 300 300 300 300 300 299 296 294 293 292 290 289 288 287 287 287 287 286 286 287 288 293 299 304 303 303 303 303 303 304 302 298 291 288 287 288 287 287 286 285 285 284 284 284 284 284 284 284 284
298 298 299 298 299 299 299 299 298 299 299 300 300 300 300 300 300 300 300 300 300 300 299 298 297 295 293 292 291 289 288 287 287 287 287 286 286 287 288 290 289 293 299 305 304 303 303 303 304 304 304 300 294 289 287 287 286 286 286 285 284 284 284 283 283 283 283 282 283
298 298 298 298 298 298 298 298 297 298 298 299 299 299 299 299 300 300 299 299 299 299 298 295 293 292 291 290 289 288 287 286 286 286 286 287 289 289 288 288 287 291 298 305 304 304 304 304 304 304 304 302 295 290 286 286 285 285 284 284 284 284 283 283 283 283 282 282 283
297 297 297 297 298 298 298 298 298 298 298 298 298 298 298 299 299 299 298 298 298 297 296 294 292 291 290 288 287 287 286 286 286 286 286 286 287 286 286 287 286 291 298 306 305 305 305 305 305 304 304 303 297 290 286 286 285 285 284 284 284 284 284 284 283 282 282 282 282
296 296 296 296 297 298 298 298 298 298 298 297 297 297 297 297 298 298 297 297 296 295 293 292 291 290 289 287 287 286 286 286 287 289 289 288 287 287 287 289 287 292 300 306 305 305 305 305 305 305 304 304 296 290 285 285 285 284 284 284 284 284 284 283 283 283 282 282 282
296 296 296 295 296 297 297 297 298 297 297 296 296 296 296 297 297 297 297 297 295 294 292 291 290 289 287 286 286 286 287 288 287 287 287 286 286 287 287 287 286 293 302 306 306 306 305 305 305 305 304 303 295 289 286 286 285 285 285 285 284 284 283 283 283 283 283 282 282
296 296 295 295 296 296 296 296 296 296 296 296 295 295 295 295 295 296 297 298 296 294 292 290 289 288 287 286 286 287 287 288 286 285 285 285 285 287 288 287 288 294 302 306 306 306 305 305 305 305 304 301 292 288 286 286 286 286 286 285 285 285 285 284 283 283 283 282 282
296 296 295 295 295 295 296 296 295 295 295 295 295 295 294 294 294 295 296 299 296 293 291 289 288 288 287 286 286 288 288 286 285 285 285 285 286 287 287 287 288 295 303 306 306 306 305 306 305 305 303 298 290 287 286 286 286 286 286 286 286 286 286 285 284 284 283 282 282
296 296 295 295 295 295 295 295 295 295 295 295 294 294 294 293 293 294 296 298 294 291 290 288 288 287 287 287 287 287 287 285 285 285 286 288 287 287 287 287 287 293 301 306 306 306 306 306 306 306 302 295 289 287 287 286 286 286 286 286 285 285 285 285 284 284 284 283 284
296 296 296 295 295 295 295 295 295 295 295 294 294 293 293 293 293 294 295 297 292 290 289 288 288 287 286 286 286 286 285 285 286 286 286 287 287 287 287 287 287 291 297 304 306 306 306 306 307 306 302 293 289 287 287 286 285 286 287 286 285 285 284 284 283 284 285 287 291
296 296 296 296 296 295 295 295 295 295 295 294 294 293 293 292 292 293 295 296 291 289 289 288 288 287 286 287 287 286 285 285 287 288 287 286 287 289 290 288 288 290 295 303 306 306 307 307 307 307 304 296 289 288 287 286 285 285 286 286 286 285 285 284 283 283 285 287 297
297 297 296 296 296 296 295 295 295 295 295 295 294 293 293 292 293 294 294 292 289 289 289 288 287 287 288 291 288 286 285 285 286 287 289 288 289 293 295 290 288 290 294 302 305 307 307 307 307 307 304 297 290 288 287 286 285 285 285 285 285 286 286 285 284 283 284 285 292
297 297 297 296 296 296 295 295 295 295 295 295 294 294 294 294 293 292 291 289 289 289 289 288 287 288 289 293 289 287 286 285 285 286 288 291 292 295 297 292 289 289 292 298 304 306 307 307 308 308 305 298 292 289 288 286 286 286 285 285 285 285 286 285 285 284 284 284 285
Wind_Speed
4 3 3 3 3 3 3 3 3 3 3 3 3 3 3 3 3 3 3 3 3 3 4 4 4 5 7 9 10 11 11 11 11 12 12 12 11 10 9 7 7 7 7 7 7 6 6 6 5 4 3 3 3 3 3 2 3 4 5 5 4 4 4 5 5 5 6 6 5
4 4 4 4 4 4 3 3 3 3 3 2 3 3 3 3 3 3 3 3 3 3 4 4 5 7 9 11 11 11 12 12 12 12 12 12 11 10 8 7 7 7 7 7 6 5 5 5 5 4 3 3 3 3 2 2 3 4 6 6 5 4 4 5 5 5 5 5 5
4 4 4 4 4 4 3 3 3 4 3 3 3 3 3 3 3 3 3 3 3 4 4 4 6 8 10 11 11 11 11 12 12 12 11 11 10 9 8 7 7 7 7 6 6 5 5 5 5 4 4 3 3 3 2 2 2 4 5 5 4 4 4 4 4 4 4 4 4
4 4 4 4 4 4 4 3 4 4 4 3 3 3 3 3 3 3 3 4 4 4 4 5 6 8 9 10 11 11 11 12 12 12 11 10 10 9 9 8 7 7 6 6 6 6 5 5 4 3 3 3 3 2 2 1 2 3 4 4 4 4 4 4 3 3 3 4 4
4 4 4 4 4 4 4 4 5 5 4 3 3 3 3 3 3 3 3 4 4 4 5 6 6 7 8 10 11 11 11 12 12 11 11 11 10 9 9 8 8 7 6 6 6 6 5 5 3 3 3 3 2 2 1 2 3 3 3 4 4 4 4 3 3 3 3 3 2
4 4 4 4 4 4 4 4 5 5 4 4 4 4 4 3 3 3 4 4 5 5 6 7 7 8 9 10 10 10 9 9 9 9 10 10 9 9 9 9 8 7 7 6 6 6 5 4 3 3 2 2 2 2 1 2 3 4 5 4 4 3 3 3 2 2 3 3 3
4 4 4 4 4 4 4 4 4 4 4 4 5 5 5 4 4 4 5 5 5 5 6 6 7 8 8 9 9 9 8 8 8 8 9 9 9 9 8 8 8 7 7 7 6 5 5 4 3 3 3 3 2 2 2 2 4 5 6 5 3 3 2 2 2 2 3 5 6
5 5 5 4 4 5 5 5 4 4 4 4 5 5 5 5 5 5 5 5 5 5 5 5 6 8 8 9 9 9 9 9 8 8 8 9 9 9 8 8 8 7 7 7 6 5 4 3 3 3 3 3 2 2 2 4 5 6 6 5 3 2 2 2 2 3 4 6 5
4 4 4 4 4 5 5 5 5 5 4 4 5 5 5 5 5 5 6 5 5 5 5 6 7 8 9 9 9 9 8 8 8 8 8 8 9 8 8 7 7 7 6 6 6 5 5 3 3 3 3 3 3 3 3 5 6 7 6 4 3 2 2 2 2 3 4 5 4
5 4 4 4 4 4 5 5 5 5 5 5 5 5 5 6 6 5 5 5 5 6 6 6 7 8 9 9 9 8 8 8 8 8 8 8 8 8 7 7 7 7 6 5 5 5 4 3 3 3 3 3 3 4 4 5 6 6 5 3 3 3 3 3 3 3 3 3 3
5 5 4 4 4 5 5 5 5 5 5 5 5 5 5 5 5 5 5 5 6 6 7 7 7 8 8 8 8 8 7 7 7 7 7 7 7 7 7 6 7 7 6 5 5 4 4 3 4 4 4 3 4 4 4 5 5 5 4 3 3 3 3 2 2 2 3 3 3
5 5 5 5 5 5 5 5 4 4 5 5 5 4 4 4 5 5 6 6 7 6 6 6 7 7 7 7 7 7 7 7 7 7 7 7 7 7 7 6 6 6 6 5 4 4 4 4 5 5 5 4 4 4 4 4 5 5 4 3 3 3 2 2 2 2 2 3 3
5 5 5 5 5 5 5 5 4 4 4 5 4 4 3 4 5 6 7 7 6 6 5 5 6 6 6 6 6 7 7 7 7 7 7 7 7 7 6 6 6 6 5 5 4 4 4 5 5 6 6 5 4 4 4 4 4 4 4 3 3 2 2 2 1 2 2 3 3
6 6 6 6 6 5 5 5 4 4 4 4 4 4 4 4 5 6 7 7 6 6 5 5 5 5 5 6 6 7 7 7 7 7 7 7 7 6 6 6 6 5 5 4 3 4 4 5 5 6 6 6 5 4 4 4 3 3 3 3 3 3 2 2 2 2 3 3 3
6 6 6 6 6 5 5 4 4 4 4 4 4 4 4 5 5 6 6 6 6 5 5 4 4 5 5 6 6 7 7 7 7 7 7 7 7 6 6 6 5 5 4 4 3 4 4 5 5 6 6 6 6 5 4 3 3 3 3 3 3 3 3 3 3 3 4 4 3
6 6 6 6 6 5 4 4 4 4 4 5 5 5 5 5 5 6 6 6 6 5 5 5 5 5 5 6 6 6 7 7 7 7 7 7 7 6 6 6 5 5 5 4 4 4 4 4 5 6 6 6 5 4 3 3 3 3 3 3 3 3 3 4 4 4 4 4 3
6 6 6 6 6 5 5 4 4 4 5 5 6 6 5 5 5 6 6 6 6 5 6 6 5 5 5 6 6 6 6 6 6 7 7 7 7 7 6 6 6 5 5 5 5 5 4 4 5 5 5 5 4 4 3 3 3 3 3 3 3 3 3 4 4 4 4 4 4
6 6 6 6 6 6 6 5 5 5 6 6 6 6 6 6 6 6 6 6 6 7 7 7 6 6 6 6 5 5 5 5 6 6 6 6 7 7 6 6 6 5 5 5 5 6 6 5 4 4 3 3 3 3 3 3 4 4 3 3 2 2 2 3 3 4 4 4 4
6 6 6 6 6 6 6 7 6 6 7 7 7 7 7 7 7 6 6 6 7 7 8 7 7 6 6 7 6 5 5 5 6 6 6 6 6 6 6 6 6 6 5 6 6 6 6 5 4 3 2 2 2 2 2 3 3 3 3 3 2 2 2 2 2 3 3 3 3
6 6 7 6 7 7 7 7 7 7 7 7 7 7 7 7 7 7 7 7 7 7 8 8 7 7 7 7 6 6 5 5 6 6 6 6 6 6 6 6 6 6 6 6 6 5 5 4 3 3 2 3 3 3 3 3 3 3 3 2 2 2 2 2 2 2 3 3 3
6 6 6 6 6 7 7 7 7 7 7 7 8 8 8 8 7 8 7 7 7 7 8 8 8 7 7 7 7 6 5 5 5 6 6 6 6 6 7 7 6 6 5 5 4 4 4 3 3 3 3 3 4 4 4 4 4 3 3 2 2 2 2 2 2 2 2 2 3
6 6 7 7 7 7 7 7 7 7 8 8 8 8 8 8 8 8 7 7 7 7 7 8 7 7 7 7 7 7 6 5 5 6 6 6 6 6 6 6 5 5 4 4 3 3 3 3 3 3 4 4 4 5 5 5 5 4 4 4 3 3 2 2 2 2 2 2 2
6 7 7 7 7 8 8 8 8 8 8 8 8 8 8 8 8 8 7 7 7 7 7 7 7 7 7 7 7 7 6 6 6 6 6 6 6 5 5 4 4 4 4 3 3 3 3 3 3 3 4 4 5 5 6 6 6 6 5 5 4 3 3 2 2 2 2 2 2
6 7 7 7 7 8 8 8 8 8 8 8 8 8 8 8 8 8 8 7 7 7 7 6 6 7 7 7 7 7 7 7 6 6 5 5 5 4 3 3 3 3 3 3 3 4 4 4 3 3 4 4 5 5 5 6 6 6 6 5 5 4 3 3 3 3 3 3 2
7 7 7 7 8 7 7 7 8 8 8 8 8 8 8 8 8 8 8 7 7 7 7 7 6 6 6 7 7 7 7 7 7 7 6 5 4 3 2 2 2 2 2 3 6 8 8 6 5 4 4 4 4 4 4 4 5 5 5 5 5 4 3 3 3 4 3 3 3
7 7 7 8 8 8 7 7 8 8 8 8 8 8 8 8 7 7 7 7 7 7 7 7 6 6 6 6 6 6 6 6 6 6 6 5 3 3 2 2 2 2 2 5 9 10 11 10 8 6 5 4 4 4 4 3 4 4 4 5 4 4 3 3 3 3 3 3 3
7 7 8 8 8 8 8 8 8 8 8 8 8 7 7 7 6 7 7 7 7 6 6 6 6 6 6 5 6 6 5 4 4 4 4 4 4 3 2 2 2 2 3 8 10 11 11 11 10 8 6 4 4 4 4 3 3 4 4 4 4 4 3 3 2 2 2 3 3
8 8 8 8 8 8 8 8 8 8 8 8 7 7 7 7 6 6 6 6 6 6 5 5 5 5 5 4 5 5 4 3 3 3 3 3 3 3 3 2 1 3 5 9 11 12 11 11 10 9 8 6 4 4 4 4 3 3 3 4 3 3 3 3 2 1 1 2 3
8 8 8 8 8 8 8 8 8 8 7 7 7 7 7 6 6 6 6 6 6 6 5 4 4 4 3 4 4 3 3 3 2 2 2 3 3 2 2 2 1 3 7 11 11 11 11 11 10 10 9 8 5 4 4 4 3 3 3 3 3 3 2 2 2 1 1 1 2
8 9 9 8 8 8 8 8 7 7 7 7 7 7 7 7 7 7 7 7 6 5 5 4 4 4 4 4 3 3 2 2 2 2 3 3 3 2 2 1 1 3 6 11 11 11 11 11 10 10 10 10 7 5 4 4 3 3 3 2 2 2 2 2 2 1 1 1 0
9 9 9 8 8 8 8 7 7 7 7 7 7 7 7 7 7 7 6 6 5 5 5 4 4 4 4 3 3 3 2 2 2 2 3 3 3 2 2 1 2 3 5 11 11 11 10 10 10 11 11 10 7 5 4 4 3 3 3 2 2 2 2 2 2 2 2 2 1
9 9 9 9 9 9 8 8 8 7 7 7 7 7 7 7 7 6 6 5 6 5 5 4 4 4 4 3 3 3 3 3 3 3 3 3 3 2 1 1 2 3 4 10 11 11 10 10 10 11 11 10 7 5 4 4 3 3 3 3 2 2 2 2 2 2 2 2 2
9 9 9 9 9 9 8 8 8 8 8 8 8 8 8 7 7 6 6 6 6 6 5 5 5 5 4 4 3 3 3 3 3 3 3 3 3 2 2 2 2 4 5 10 11 11 10 10 10 11 10 10 7 5 4 4 3 3 2 2 2 1 2 2 2 2 2 2 2
9 9 9 9 9 9 9 8 8 8 8 8 8 8 8 7 7 7 7 6 5 5 4 4 5 4 4 4 4 4 4 4 3 3 3 3 3 2 2 2 2 4 6 9 11 11 10 11 10 10 10 9 6 5 4 3 3 2 2 2 1 1 1 1 2 2 2 2 2
10 10 9 9 9 9 9 9 8 9 9 9 8 8 8 7 8 7 7 7 5 4 3 3 3 3 3 3 3 4 4 4 3 3 3 3 3 2 2 2 3 5 6 9 11 11 11 11 11 11 10 8 5 4 4 4 3 2 2 1 1 0 0 0 1 1 1 2 2
10 10 10 9 9 9 9 9 9 9 9 9 9 8 7 7 6 6 7 7 6 5 4 3 3 3 3 2 2 3 4 4 4 3 3 3 3 3 3 3 3 5 6 9 11 11 11 11 11 11 9 7 4 3 3 3 3 2 2 2 1 0 0 0 0 0 1 1 2
10 10 10 10 9 9 9 9 9 10 10 9 9 8 8 7 6 6 6 6 5 4 4 4 3 3 3 3 3 3 3 3 4 3 3 3 3 3 3 3 3 5 6 9 10 11 11 11 11 11 9 5 4 3 3 3 2 2 2 1 0 1 1 1 1 0 0 1 2
10 10 10 10 10 10 9 9 10 10 10 9 8 7 7 7 6 5 5 6 5 4 4 4 3 3 3 4 3 3 3 3 4 4 4 4 4 4 4 3 4 5 5 8 10 11 11 11 12 11 9 5 4 4 3 3 2 2 1 0 0 1 2 2 1 1 1 1 3
10 10 10 10 10 10 10 10 10 10 10 9 8 7 6 6 5 5 5 5 4 4 4 4 4 3 3 4 4 3 2 2 3 4 4 4 5 5 5 4 4 5 6 7 9 11 11 11 12 12 10 6 5 4 3 3 3 2 1 1 0 1 2 2 2 2 2 3 3
10 11 11 10 10 10 10 10 10 9 9 8 8 8 7 6 5 5 5 4 4 4 4 4 4 4 4 5 5 4 3 2 2 3 4 5 6 7 7 5 4 5 6 7 8 10 11 11 12 12 10 6 5 4 4 4 3 2 1 1 0 1 1 2 2 2 2 3 3
10 10 11 10 10 10 10 10 9 8 8 7 8 7 7 6 5 4 4 4 4 4 4 4 4 5 5 6 5 5 4 3 2 3 4 5 6 7 7 5 5 5 5 6 7 9 11 11 11 12 10 6 5 4 4 4 3 3 2 1 1 1 1 1 2 2 2 3 3
Wind_Direction
86 87 91 96 100 103 104 103 102 99 97 97 99 100 99 98 97 95 92 92 98 103 107 108 111 112 110 108 107 106 106 106 106 105 103 99 97 94 91 85 81 77 74 70 67 66 65 65 68 68 64 61 61 60 64 78 92 95 94 92 91 89 87 85 83 79 76 73 72
87 89 93 99 103 105 106 106 102 98 93 90 94 95 96 96 97 95 92 88 93 98 102 105 109 112 112 112 110 110 110 110 109 107 105 102 101 100 97 92 85 80 76 72 70 69 71 71 75 75 71 64 63 61 60 66 91 98 99 97 97 93 87 83 78 77 76 75 73
85 86 89 94 102 108 111 113 110 105 100 95 94 94 94 94 94 93 90 90 90 94 99 105 109 112 113 113 113 113 114 115 114 112 109 107 106 104 101 95 88 82 77 74 73 73 75 74 80 83 83 77 76 75 76 76 96 101 101 98 96 92 87 84 78 75 74 74 72
79 83 87 93 100 106 112 116 116 113 110 106 100 96 94 92 91 90 90 90 90 92 98 106 110 112 114 115 117 118 119 121 119 117 115 114 112 109 105 99 92 86 81 78 77 76 74 73 78 82 84 85 87 92 100 110 104 100 96 90 86 84 83 83 78 78 78 77 76
75 76 81 88 94 99 104 110 114 116 115 113 109 106 101 96 94 91 90 90 91 95 100 106 109 113 116 117 119 120 121 122 122 121 120 119 117 114 110 105 100 95 90 86 84 83 82 80 80 77 74 75 80 90 107 119 104 94 86 77 76 78 82 83 81 82 84 86 82
85 82 81 85 90 95 99 104 109 112 115 117 117 116 114 109 102 98 97 98 100 102 104 107 109 113 116 117 118 118 118 117 118 118 118 117 116 113 111 107 106 104 102 99 97 96 96 96 94 88 80 78 77 81 100 117 104 95 87 78 75 77 81 83 84 84 82 78 68
96 96 94 92 96 100 103 107 109 111 114 118 121 123 122 118 110 107 107 109 108 107 107 108 111 115 117 117 116 114 112 111 110 111 113 113 112 112 111 110 110 111 111 111 110 109 110 112 113 113 111 107 101 96 98 107 102 96 91 86 80 78 79 81 82 82 80 77 72
100 101 102 100 101 103 106 109 111 113 115 119 124 125 123 118 114 113 113 112 112 111 111 110 114 116 118 117 116 114 112 111 110 110 110 111 112 112 113 114 115 116 117 117 118 119 121 121 124 127 128 126 121 111 102 99 97 95 94 94 86 76 69 71 74 83 89 91 91
104 105 105 103 103 104 105 106 109 112 115 118 123 125 124 121 116 115 115 115 116 115 113 113 116 116 116 115 115 114 114 114 113 113 113 113 116 117 118 120 120 121 120 120 121 124 126 126 124 126 127 127 123 114 104 97 96 97 99 100 92 76 61 55 66 80 92 99 104
113 112 110 107 105 104 103 100 102 106 110 116 122 126 127 124 116 114 115 117 116 115 115 117 117 116 115 114 114 115 115 116 116 117 118 119 122 124 125 126 126 125 124 124 125 126 126 124 119 115 113 113 112 108 104 99 101 102 103 103 94 79 62 45 57 72 86 94 96
118 118 116 113 111 108 104 100 102 105 111 117 122 125 123 119 114 113 114 115 114 115 117 120 119 117 116 115 116 117 118 118 119 120 121 123 125 126 127 128 128 128 128 129 128 127 126 123 118 113 109 106 108 107 106 104 104 105 104 99 89 79 67 46 50 67 83 89 88
121 118 115 113 112 109 107 106 107 110 114 119 121 119 113 108 112 115 116 114 114 114 116 118 118 118 118 118 118 119 119 119 121 122 122 123 124 124 124 125 126 127 128 129 130 129 127 127 124 120 116 112 112 113 114 112 109 108 106 99 87 82 78 64 57 67 80 87 87
121 118 114 111 110 109 108 110 112 115 118 120 119 114 108 106 113 116 117 116 114 113 112 114 114 116 118 120 120 121 121 121 122 123 123 123 122 122 121 122 123 125 126 128 128 130 130 131 129 128 126 125 126 127 126 122 118 116 115 110 100 98 102 104 97 90 87 87 90
119 117 114 112 111 110 111 113 116 118 119 119 115 111 108 107 114 116 117 115 114 112 111 110 110 114 117 120 120 121 122 122 123 123 122 122 121 120 120 120 121 123 123 125 126 129 133 136 136 136 135 136 138 138 135 129 128 129 131 130 129 128 129 131 126 114 106 100 99
116 116 115 113 113 112 113 116 118 119 118 116 112 110 108 108 113 114 114 113 111 111 109 107 107 108 110 114 116 119 121 122 123 122 122 120 119 118 119 119 120 120 121 122 124 128 133 139 142 143 143 142 144 144 141 137 139 143 145 147 147 144 142 141 135 127 122 120 115
116 116 116 115 114 114 113 115 115 115 113 111 109 108 108 109 110 111 111 111 110 109 106 105 105 105 105 107 109 114 118 120 121 121 121 121 120 120 119 119 120 120 122 123 125 130 136 144 149 149 148 146 146 146 147 150 154 157 158 159 155 151 147 145 139 134 132 130 130
117 118 118 117 116 114 112 111 110 110 110 109 108 109 109 110 108 109 109 111 110 108 105 102 103 102 102 102 103 107 112 116 118 119 121 123 123 123 121 121 122 124 126 128 132 137 144 152 155 153 148 144 145 148 155 164 166 166 165 164 160 156 150 145 139 137 136 135 142
119 120 120 119 118 115 113 111 110 110 110 111 111 110 110 109 108 108 108 110 111 109 106 101 99 99 99 99 98 101 106 111 114 117 120 123 123 123 123 123 126 129 133 138 143 148 153 158 157 152 143 137 141 151 164 171 171 167 164 162 162 156 146 137 134 135 137 142 153
122 122 122 121 119 117 115 114 113 112 112 113 112 111 109 109 109 109 109 111 111 109 107 103 100 98 98 99 98 100 104 108 113 117 119 121 121 123 125 129 133 138 144 149 152 155 157 158 155 151 143 138 145 156 166 168 164 161 156 153 153 144 132 121 122 128 136 145 157
125 125 124 122 120 118 117 116 115 114 114 113 112 111 110 111 112 113 114 115 113 110 108 108 106 105 104 103 103 105 108 112 115 118 120 121 124 128 133 138 143 148 152 155 156 157 157 157 156 155 155 154 154 156 155 153 147 143 139 132 127 119 110 108 113 118 128 140 153
127 126 125 122 119 118 118 117 116 115 115 114 114 114 114 115 116 118 119 119 116 114 113 113 115 115 115 114 114 115 116 117 119 122 125 128 133 137 143 147 150 153 155 157 156 156 158 161 164 164 163 159 156 151 145 137 129 122 113 102 94 87 85 90 101 109 119 132 145
129 127 125 122 120 119 119 118 117 117 116 116 116 116 117 120 122 123 123 122 120 119 119 120 122 124 125 124 124 123 123 123 126 131 134 138 142 145 148 149 151 153 156 159 159 160 162 166 168 164 160 155 150 143 136 128 121 113 104 95 86 79 72 70 78 89 100 112 128
130 128 126 124 121 121 121 120 119 119 119 119 120 121 123 126 127 127 127 126 126 126 126 127 128 129 130 129 129 128 130 132 136 140 144 145 146 146 146 144 149 156 162 167 165 164 162 162 162 159 152 144 137 131 126 123 119 115 109 103 95 85 74 64 64 66 69 72 85
132 130 128 126 124 123 124 125 124 124 124 125 126 128 130 132 132 132 132 132 132 132 132 131 130 130 130 130 132 135 139 143 146 148 149 148 145 144 142 141 153 165 173 178 176 171 164 156 155 148 139 128 121 118 117 117 117 117 115 109 102 90 75 56 49 48 49 46 45
133 131 129 128 128 127 127 128 129 129 130 131 133 134 136 137 137 137 136 135 134 134 132 130 128 128 129 133 138 144 149 152 153 153 152 151 146 142 142 150 166 179 188 193 184 174 163 152 145 135 124 113 107 103 102 104 110 113 114 111 105 94 76 52 37 31 29 29 24
133 132 131 132 132 132 131 131 132 132 134 135 136 138 139 140 138 137 135 134 133 131 129 127 128 130 135 139 146 151 155 158 156 154 151 149 146 146 150 165 181 195 200 197 179 166 154 144 135 127 117 108 104 99 94 90 95 100 104 104 101 96 86 66 40 24 15 12 9
134 135 135 137 136 136 135 134 134 135 137 138 139 140 140 138 136 133 132 130 129 127 126 127 131 136 142 147 153 156 159 159 153 148 143 143 144 149 159 177 194 211 203 190 170 159 150 142 133 125 117 108 106 104 102 96 88 86 88 91 91 93 93 91 71 38 12 1 360
138 139 139 139 139 139 138 136 137 139 140 141 140 139 136 132 130 128 127 126 126 126 126 129 137 142 149 155 159 158 155 147 134 127 127 132 138 146 156 176 202 215 202 185 165 157 152 146 139 130 121 111 107 106 107 103 92 84 80 82 84 88 92 98 94 71 22 357 352
142 141 142 142 142 142 141 140 141 142 142 141 138 135 132 129 127 127 127 127 128 130 133 139 145 148 152 157 155 147 132 120 115 113 117 122 129 139 153 169 207 212 197 179 163 157 154 150 144 134 124 117 110 106 106 105 99 90 83 82 85 91 96 102 100 91 61 11 356
144 144 144 145 145 145 144 144 143 142 141 139 136 134 132 130 130 131 132 132 133 136 140 145 148 150 151 149 137 124 112 105 107 114 121 126 133 142 156 170 238 224 196 172 160 155 154 150 144 135 126 119 114 110 108 108 107 104 102 100 101 107 113 119 122 125 123 110 44
147 146 146 146 148 147 147 145 143 142 140 138 136 135 135 135 137 138 138 137 138 141 143 144 145 144 139 127 116 114 114 111 114 120 128 132 141 152 173 216 275 253 207 170 157 154 154 149 143 136 128 121 116 112 110 110 110 114 119 123 125 129 134 137 140 145 149 145 137
147 146 147 148 150 151 150 148 146 143 141 139 139 140 140 140 141 141 140 140 142 145 148 148 144 138 128 115 112 114 120 126 135 142 143 142 151 165 199 243 278 266 221 171 157 154 154 149 145 139 132 122 115 109 106 105 106 111 117 124 132 141 146 148 150 155 158 157 151
147 148 149 151 153 153 152 151 149 147 144 143 144 144 144 144 143 142 143 146 150 153 155 153 148 143 137 131 130 132 138 147 153 155 154 150 153 166 200 244 271 268 234 175 157 154 154 149 147 142 135 123 113 104 99 97 96 97 100 106 118 136 148 152 155 157 160 161 154
149 150 151 152 154 155 155 154 151 149 147 146 148 149 150 149 149 151 154 158 159 158 155 151 147 143 141 139 140 145 152 157 158 159 158 154 154 167 198 244 271 269 240 179 157 153 154 149 147 143 136 123 112 101 96 93 90 89 89 90 87 93 132 150 153 155 156 156 151
152 152 153 154 155 157 157 156 153 151 150 151 153 155 155 155 156 159 161 162 159 153 145 139 132 127 124 124 135 145 154 158 160 162 161 154 154 170 199 242 273 266 240 183 158 154 154 150 147 142 134 121 108 98 96 97 96 96 97 98 88 66 34 78 125 142 148 152 149
154 154 155 156 158 159 159 158 156 155 155 156 158 159 160 161 161 162 162 159 152 145 137 131 123 121 122 125 135 148 156 160 161 163 163 156 157 170 196 235 269 259 231 183 161 156 156 152 148 141 132 118 103 93 92 94 96 100 103 107 124 168 300 5 52 103 139 154 159
157 156 156 157 159 161 161 160 159 159 160 162 163 163 163 162 162 162 160 155 146 142 139 134 133 138 145 150 153 158 161 158 157 159 162 166 166 175 193 223 256 257 231 184 165 161 160 155 150 143 134 119 108 98 92 87 88 93 102 117 183 286 320 351 10 32 142 185 184
159 157 157 158 161 163 164 164 164 164 165 166 166 165 163 160 160 161 160 155 145 143 144 142 147 155 159 158 154 152 151 154 156 159 164 175 178 180 187 209 240 260 246 197 172 167 165 160 155 148 142 130 125 117 107 96 93 98 109 144 288 317 331 349 359 354 309 249 203
161 160 159 160 162 164 166 167 168 169 168 167 166 164 162 159 160 160 158 150 142 142 147 149 157 162 162 155 146 142 145 156 163 166 170 181 188 188 188 197 225 254 255 222 185 175 172 168 162 157 151 140 134 126 117 109 107 110 120 146 290 313 325 342 351 345 319 287 235
163 161 161 162 164 166 168 170 172 171 170 167 166 164 163 162 160 155 148 136 133 138 145 151 157 160 159 154 147 145 149 163 175 179 181 187 195 195 193 194 215 243 254 245 206 188 181 180 173 165 157 140 133 125 118 112 111 117 128 163 224 277 300 320 336 337 324 308 295
164 163 163 164 166 168 169 171 173 173 172 169 167 166 163 159 151 145 139 134 136 141 145 150 154 158 159 157 150 149 152 168 191 201 199 195 201 199 196 193 210 231 250 260 230 207 195 192 185 174 163 144 134 125 119 113 116 128 153 190 202 220 246 287 315 321 322 316 320